FW2998 Weather Reports


time (UTC)temp
F
wind
direction
speed
knots
gust
knots
rain 1hr
in
rain 24hr
in
rain mn
in
humidity
%
barometer
mb
20260509191023 75 259 0.0 3.5 0.00 0.06 0.04 72 1012.0
20260509190519 75 0 0.0 2.6 0.00 0.06 0.04 72 1012.1
20260509190037 75 0 0.0 3.5 0.00 0.06 0.04 72 1012.1
20260509185519 75 0 0.0 3.5 0.00 0.07 0.04 72 1012.2
20260509185019 75 289 0.0 7.0 0.00 0.07 0.04 71 1012.0
20260509184536 75 0 0.0 7.0 0.00 0.07 0.04 72 1012.1
20260509184020 75 0 0.9 7.0 0.00 0.07 0.04 72 1012.0
20260509183519 75 0 0.0 3.5 0.00 0.07 0.04 73 1012.1
20260509183036 74 0 0.0 3.5 0.00 0.07 0.04 73 1011.8
20260509182520 74 258 0.0 3.5 0.00 0.07 0.04 73 1012.1
20260509182022 74 0 0.0 2.6 0.00 0.07 0.04 73 1012.2
20260509181538 74 0 0.0 3.5 0.00 0.07 0.04 72 1012.2
20260509181021 74 0 0.0 6.1 0.00 0.07 0.04 72 1012.3
20260509180518 74 279 0.0 6.1 0.00 0.07 0.04 72 1012.3
20260509180049 74 323 0.0 6.1 0.00 0.07 0.04 72 1012.3
20260509175519 74 0 0.9 6.1 0.00 0.07 0.04 73 1012.5
20260509175019 74 0 0.0 4.3 0.00 0.07 0.04 73 1012.2
20260509174537 74 290 0.0 3.5 0.00 0.07 0.04 73 1012.1
20260509174019 74 0 0.0 7.0 0.00 0.07 0.04 72 1012.2
20260509173520 74 0 0.0 7.0 0.00 0.07 0.04 72 1012.2
20260509173041 74 265 0.9 5.2 0.00 0.07 0.04 72 1012.1
20260509172523 74 0 0.0 3.5 0.00 0.07 0.04 72 1012.1
20260509172021 74 186 0.9 5.2 0.00 0.07 0.04 72 1012.1
20260509171539 74 0 0.0 6.1 0.00 0.07 0.04 73 1012.3
20260509171020 74 0 0.9 6.1 0.00 0.07 0.04 73 1012.4
20260509170519 74 0 0.0 3.5 0.00 0.07 0.04 74 1012.3
20260509170038 74 290 0.0 4.3 0.00 0.07 0.04 75 1012.3
20260509165522 74 0 0.0 4.3 0.00 0.08 0.04 75 1012.5
20260509165019 74 0 0.0 7.0 0.00 0.08 0.04 74 1012.5
20260509164538 74 0 0.0 7.0 0.00 0.08 0.04 75 1012.6
20260509164021 73 0 0.9 7.0 0.00 0.08 0.04 75 1012.8
20260509163523 73 0 0.0 6.1 0.00 0.08 0.04 76 1012.8
20260509163040 73 0 0.0 5.2 0.00 0.08 0.04 76 1012.8
20260509162520 73 0 0.9 4.3 0.00 0.08 0.04 77 1012.8
20260509162022 72 0 0.0 4.3 0.00 0.08 0.04 78 1012.8
20260509161537 72 0 0.0 6.1 0.00 0.08 0.04 78 1012.8
20260509161019 72 0 0.0 6.1 0.00 0.08 0.04 80 1012.8
20260509160521 71 0 0.0 4.3 0.00 0.08 0.04 81 1012.9
20260509160040 71 286 0.0 3.5 0.00 0.08 0.04 82 1013.1
20260509155521 71 0 0.0 3.5 0.00 0.08 0.04 82 1013.2
20260509155021 70 0 0.0 3.5 0.00 0.08 0.04 82 1013.2
20260509154545 70 0 0.0 2.6 0.00 0.08 0.04 83 1013.3
20260509154022 70 0 0.0 1.7 0.00 0.08 0.04 83 1013.3
20260509153519 70 0 0.0 1.7 0.00 0.08 0.04 83 1013.3
20260509153051 69 0 0.0 1.7 0.00 0.08 0.04 84 1013.1
20260509152519 69 118 0.0 2.6 0.00 0.08 0.04 84 1013.0
20260509152019 69 0 0.0 2.6 0.00 0.08 0.04 84 1013.1
20260509151536 69 0 0.0 1.7 0.00 0.08 0.04 85 1013.1
20260509151019 69 0 0.0 1.7 0.00 0.08 0.04 85 1013.2
20260509150519 69 0 0.0 1.7 0.00 0.08 0.04 85 1013.4
20260509150036 68 0 0.0 1.7 0.00 0.08 0.04 85 1013.4
20260509145523 68 0 0.0 2.6 0.00 0.08 0.04 85 1013.4
20260509145020 68 0 0.0 2.6 0.00 0.08 0.04 86 1013.4
20260509144534 68 0 0.0 2.6 0.00 0.08 0.04 86 1013.5
20260509144021 68 0 0.0 1.7 0.00 0.08 0.04 86 1013.6
20260509143521 67 360 0.0 0.0 0.00 0.08 0.04 86 1013.5
20260509143038 67 0 0.0 0.0 0.00 0.08 0.04 86 1013.6
20260509142519 67 0 0.0 0.0 0.00 0.08 0.04 85 1013.6
20260509142019 67 0 0.0 0.0 0.00 0.08 0.04 86 1013.7
20260509141542 67 0 0.0 0.9 0.00 0.08 0.04 86 1013.6
20260509141020 67 0 0.0 0.9 0.00 0.08 0.04 86 1013.5
20260509140519 66 0 0.0 0.9 0.00 0.08 0.04 86 1013.4
20260509140052 66 0 0.0 0.9 0.00 0.08 0.04 86 1013.5
20260509135520 66 0 0.0 0.9 0.00 0.09 0.04 86 1013.6
20260509135020 66 0 0.0 0.9 0.00 0.09 0.04 86 1013.5
20260509134532 66 0 0.0 0.0 0.00 0.09 0.04 86 1013.6
20260509134021 66 0 0.0 0.0 0.00 0.09 0.04 86 1013.6
20260509133519 66 0 0.0 0.0 0.00 0.09 0.04 86 1013.6
20260509133039 66 0 0.0 0.0 0.00 0.09 0.04 86 1013.6
20260509132522 66 0 0.0 2.6 0.00 0.09 0.04 87 1013.7
20260509132020 66 0 0.0 2.6 0.00 0.09 0.04 87 1013.7
20260509131538 65 0 0.0 2.6 0.00 0.09 0.04 88 1013.6
20260509131022 65 0 0.0 1.7 0.00 0.09 0.04 89 1013.5
20260509130519 65 0 0.0 1.7 0.00 0.09 0.04 89 1013.6
20260509130038 64 0 0.0 0.0 0.00 0.09 0.04 89 1013.5
20260509125519 64 0 0.0 0.0 0.00 0.10 0.04 90 1013.4
20260509125021 64 0 0.0 0.9 0.00 0.10 0.04 91 1013.5
20260509124536 63 0 0.0 0.9 0.00 0.10 0.04 91 1013.4
20260509124019 63 0 0.0 0.9 0.00 0.10 0.04 91 1013.3
20260509123519 62 0 0.0 0.9 0.00 0.10 0.04 91 1013.3
20260509123037 62 0 0.0 0.9 0.00 0.10 0.04 91 1013.5
20260509122519 62 0 0.0 0.0 0.00 0.10 0.04 91 1013.5
20260509122020 62 0 0.0 0.0 0.00 0.10 0.04 91 1013.5
20260509121534 61 0 0.0 0.9 0.00 0.10 0.04 91 1013.7
20260509121020 61 0 0.0 0.9 0.00 0.10 0.04 91 1013.9
20260509120523 61 0 0.0 0.9 0.00 0.10 0.04 91 1013.9
20260509120033 61 0 0.0 0.9 0.01 0.10 0.04 91 1013.9
20260509115520 61 0 0.0 0.0 0.01 0.10 0.04 91 1014.0
20260509115019 60 0 0.0 0.0 0.01 0.10 0.04 91 1014.1
20260509114538 60 0 0.0 0.0 0.01 0.10 0.04 91 1014.0
20260509114020 60 0 0.0 0.0 0.01 0.10 0.04 91 1014.0
20260509113519 60 0 0.0 0.0 0.01 0.10 0.04 91 1014.0
20260509113036 60 0 0.0 0.0 0.01 0.10 0.04 90 1014.1
20260509112520 60 0 0.0 0.0 0.01 0.10 0.04 90 1014.2
20260509112022 60 0 0.0 0.0 0.01 0.10 0.04 90 1014.3
20260509111536 60 0 0.0 0.9 0.01 0.10 0.04 90 1014.1
20260509111022 60 0 0.0 0.9 0.01 0.10 0.04 90 1014.0
20260509110519 60 0 0.0 0.0 0.01 0.10 0.04 90 1013.9
20260509110035 60 0 0.0 0.0 0.00 0.09 0.03 90 1013.9
20260509105519 60 0 0.0 0.9 0.00 0.09 0.03 90 1014.0
20260509105023 60 0 0.0 0.9 0.00 0.09 0.03 89 1013.9
20260509104535 60 0 0.0 0.0 0.00 0.09 0.03 89 1013.8
20260509104020 59 0 0.0 0.0 0.00 0.09 0.03 89 1013.7
20260509103522 59 0 0.0 0.0 0.00 0.09 0.03 89 1013.5
20260509103046 59 0 0.0 0.0 0.00 0.09 0.03 89 1013.4
20260509102519 59 0 0.0 0.0 0.00 0.09 0.03 89 1013.2
20260509102023 59 0 0.0 0.0 0.00 0.09 0.03 88 1013.2
20260509101540 59 0 0.0 0.0 0.00 0.09 0.03 88 1013.3
20260509101022 59 0 0.0 0.0 0.01 0.09 0.03 88 1013.3
20260509100519 59 0 0.0 0.0 0.01 0.09 0.03 88 1013.3
20260509100038 59 0 0.0 0.0 0.01 0.09 0.03 88 1013.3
20260509095522 60 0 0.0 0.0 0.01 0.10 0.03 88 1012.9
20260509095026 60 0 0.0 0.0 0.01 0.10 0.03 88 1012.8
20260509094536 60 0 0.0 0.0 0.01 0.10 0.03 88 1012.7
20260509094019 60 0 0.0 0.9 0.01 0.10 0.03 88 1012.8
20260509093520 60 0 0.0 0.9 0.01 0.10 0.03 87 1012.6
20260509093039 60 0 0.0 0.9 0.01 0.10 0.03 87 1012.8
20260509092519 60 0 0.0 0.0 0.01 0.10 0.03 87 1012.8
20260509092019 60 0 0.0 0.0 0.01 0.10 0.03 87 1012.9
20260509091548 60 0 0.0 0.0 0.01 0.10 0.03 87 1012.7
20260509091023 60 0 0.0 0.0 0.00 0.09 0.02 87 1012.7
20260509090518 60 0 0.0 0.0 0.00 0.09 0.02 87 1012.8
20260509090050 60 0 0.0 0.0 0.00 0.09 0.02 87 1012.8
20260509085520 60 0 0.0 0.9 0.00 0.10 0.02 87 1012.8
20260509085019 60 0 0.0 0.9 0.00 0.10 0.02 87 1012.9
20260509084536 60 0 0.0 0.9 0.00 0.10 0.02 87 1012.9
20260509084019 60 0 0.0 0.0 0.00 0.10 0.02 87 1012.9
20260509083519 60 0 0.0 0.0 0.00 0.10 0.02 87 1013.0
20260509083042 60 0 0.0 0.0 0.00 0.10 0.02 87 1013.1
20260509082521 60 0 0.0 0.0 0.00 0.10 0.02 86 1013.2
20260509082020 60 0 0.0 0.0 0.00 0.10 0.02 86 1013.2
20260509081540 60 0 0.0 0.0 0.00 0.10 0.02 86 1013.2
20260509081020 60 0 0.0 0.0 0.00 0.10 0.02 86 1013.2
20260509080524 60 0 0.0 0.0 0.00 0.10 0.02 86 1013.2
20260509080046 60 0 0.0 0.0 0.00 0.10 0.02 86 1013.3
20260509075522 60 0 0.0 0.0 0.00 0.10 0.02 86 1013.3
20260509075022 60 0 0.0 0.0 0.00 0.10 0.02 86 1013.4
20260509074550 60 0 0.0 0.9 0.00 0.10 0.02 86 1013.4
20260509074025 60 0 0.0 0.9 0.00 0.10 0.02 85 1013.5
20260509073522 60 0 0.0 0.0 0.00 0.10 0.02 85 1013.5
20260509073054 60 0 0.0 0.0 0.00 0.10 0.02 85 1013.5
20260509072522 60 0 0.0 0.0 0.00 0.10 0.02 85 1013.7
20260509072018 60 0 0.0 0.0 0.00 0.10 0.02 85 1013.8
20260509071535 60 0 0.0 0.0 0.00 0.10 0.02 84 1013.8
20260509071019 60 0 0.0 0.0 0.00 0.10 0.02 84 1013.9
20260509070519 61 0 0.0 0.0 0.00 0.10 0.02 84 1013.9
20260509070036 61 0 0.0 0.0 0.00 0.10 0.02 84 1014.0
20260509065524 61 0 0.0 0.0 0.00 0.10 0.02 83 1013.8
20260509065022 61 0 0.0 0.0 0.00 0.10 0.02 83 1013.9
20260509064540 61 0 0.0 0.0 0.00 0.10 0.02 83 1013.8
20260509064020 61 0 0.0 0.0 0.01 0.10 0.02 83 1013.9
20260509063519 61 0 0.0 0.0 0.01 0.10 0.02 83 1013.9
20260509063052 61 0 0.0 0.0 0.01 0.10 0.02 83 1013.9
20260509062526 61 0 0.0 1.7 0.01 0.10 0.02 83 1013.8
20260509062021 61 0 0.0 1.7 0.01 0.10 0.02 83 1014.1
20260509061537 61 0 0.0 1.7 0.01 0.10 0.02 83 1014.4
20260509061023 61 0 0.0 0.0 0.01 0.10 0.02 82 1014.4
20260509060524 61 0 0.0 0.0 0.01 0.10 0.02 83 1014.6
20260509060048 62 0 0.0 0.0 0.01 0.10 0.02 83 1014.6
20260509055520 62 0 0.0 0.0 0.01 0.10 0.02 83 1014.7
20260509055025 62 0 0.0 0.0 0.01 0.10 0.02 83 1014.6
20260509054537 62 0 0.0 0.0 0.01 0.10 0.02 82 1014.7
20260509054020 62 0 0.0 0.0 0.00 0.09 0.01 82 1015.0
20260509053521 62 0 0.0 0.0 0.00 0.09 0.01 82 1015.2
20260509053052 62 0 0.0 0.0 0.00 0.09 0.01 81 1015.3
20260509052522 62 0 0.0 0.0 0.00 0.09 0.01 81 1015.4
20260509052020 62 0 0.0 0.0 0.00 0.09 0.01 81 1015.2
20260509051538 62 0 0.0 0.0 0.00 0.09 0.01 81 1015.2
20260509051021 62 0 0.0 0.0 0.00 0.09 0.01 81 1015.2
20260509050524 62 0 0.0 0.0 0.00 0.09 0.01 81 1015.3
20260509050038 62 0 0.0 0.0 0.01 0.09 0.01 80 1015.5
20260509045522 62 0 0.0 0.0 0.01 0.10 0.01 80 1015.6
20260509045019 62 0 0.0 0.0 0.01 0.10 0.01 79 1015.6
20260509044536 62 0 0.0 0.0 0.01 0.10 0.01 79 1015.5
20260509044023 62 0 0.0 0.0 0.01 0.10 0.01 79 1015.5
20260509043519 62 0 0.0 0.0 0.01 0.10 0.01 78 1015.3
20260509043047 62 0 0.0 0.0 0.01 0.10 0.01 79 1015.3
20260509042519 62 0 0.0 0.0 0.01 0.10 0.01 79 1015.2
20260509042022 62 0 0.0 0.0 0.01 0.10 0.01 78 1015.5
20260509041541 62 0 0.0 0.0 0.01 0.10 0.01 78 1015.8
20260509041021 62 0 0.0 0.0 0.01 0.10 0.01 77 1016.0
20260509040520 62 0 0.0 0.0 0.01 0.10 0.01 77 1015.9
20260509040058 62 0 0.0 0.0 0.00 0.09 0.00 76 1015.8
20260509035521 62 0 0.0 0.0 0.00 0.09 0.09 75 1016.1
20260509035020 62 0 0.0 0.0 0.00 0.09 0.09 74 1016.1
20260509034538 62 0 0.0 0.0 0.00 0.09 0.09 74 1016.0
20260509034021 62 0 0.0 0.0 0.00 0.09 0.09 72 1016.0
20260509033521 62 0 0.0 0.0 0.00 0.09 0.09 72 1015.9
20260509033047 62 0 0.0 0.0 0.00 0.09 0.09 71 1015.8
20260509032520 62 0 0.0 0.0 0.00 0.09 0.09 70 1015.7
20260509032020 62 0 0.0 0.0 0.00 0.09 0.09 70 1015.7
20260509031538 62 0 0.0 0.0 0.00 0.09 0.09 70 1015.5
20260509031020 62 0 0.0 0.9 0.00 0.09 0.09 69 1015.7
20260509030522 62 0 0.0 0.9 0.00 0.09 0.09 69 1015.8
20260509030032 62 0 0.0 0.0 0.00 0.09 0.09 68 1015.7
20260509025522 63 0 0.0 0.0 0.00 0.10 0.09 68 1015.9
20260509025024 63 0 0.0 0.0 0.00 0.10 0.09 68 1015.8
20260509024532 63 0 0.0 0.0 0.00 0.10 0.09 69 1015.8
20260509024025 63 0 0.0 0.0 0.00 0.10 0.09 68 1015.8
20260509023521 63 0 0.0 0.0 0.00 0.10 0.09 68 1015.9
20260509023032 63 0 0.0 0.0 0.00 0.10 0.09 67 1015.9
20260509022521 63 0 0.0 0.0 0.00 0.10 0.09 67 1015.8
20260509022020 64 0 0.0 0.0 0.00 0.10 0.09 67 1015.9
20260509021538 64 0 0.0 0.0 0.00 0.10 0.09 67 1016.0
20260509021022 64 0 0.0 0.0 0.00 0.10 0.09 66 1015.7
20260509020526 64 0 0.0 0.0 0.00 0.10 0.09 66 1015.7
20260509020035 64 0 0.0 0.0 0.00 0.10 0.09 65 1015.7
20260509015520 64 0 0.0 0.0 0.00 0.10 0.09 65 1015.8
20260509015019 65 0 0.0 0.0 0.00 0.10 0.09 65 1015.8
20260509014537 65 0 0.0 0.0 0.00 0.10 0.09 65 1015.8
20260509014022 65 0 0.0 0.0 0.00 0.10 0.09 64 1015.6
20260509013522 65 0 0.0 0.0 0.00 0.10 0.09 64 1015.6
20260509013035 65 0 0.0 0.0 0.00 0.10 0.09 64 1015.6
20260509012520 65 0 0.0 0.0 0.00 0.10 0.09 64 1015.5
20260509012021 65 0 0.0 0.0 0.01 0.10 0.09 63 1015.4
20260509011534 66 0 0.0 0.0 0.01 0.10 0.09 63 1015.3
20260509011020 66 0 0.0 0.0 0.01 0.10 0.09 63 1015.3
20260509010520 66 0 0.0 0.0 0.01 0.10 0.09 62 1015.4
20260509010036 66 0 0.0 0.0 0.01 0.10 0.09 62 1015.3
20260509005523 66 0 0.0 0.0 0.01 0.10 0.09 61 1015.5
20260509005019 67 0 0.0 0.0 0.01 0.10 0.09 61 1015.4
20260509004537 67 0 0.0 0.0 0.01 0.10 0.09 61 1015.5
20260509004020 67 0 0.0 0.0 0.01 0.10 0.09 60 1015.4
20260509003519 67 0 0.0 0.0 0.01 0.10 0.09 60 1015.3
20260509003037 67 0 0.0 0.0 0.01 0.10 0.09 59 1015.2
20260509002522 68 0 0.0 0.0 0.01 0.10 0.09 58 1015.0
20260509002019 68 0 0.0 0.0 0.00 0.09 0.08 57 1014.9
20260509001537 68 0 0.0 0.0 0.00 0.09 0.08 57 1014.9
20260509001018 68 0 0.0 0.0 0.00 0.09 0.08 57 1014.9
20260509000519 69 0 0.0 0.0 0.00 0.09 0.08 56 1014.8
20260509000035 69 0 0.0 0.0 0.00 0.09 0.08 56 1014.9
20260508235521 69 0 0.0 0.0 0.00 0.10 0.08 56 1014.7
20260508235023 69 0 0.0 0.0 0.00 0.10 0.08 55 1014.9
20260508234532 69 0 0.0 0.0 0.00 0.10 0.08 56 1014.7
20260508234022 69 0 0.0 0.0 0.00 0.10 0.08 55 1014.7
20260508233523 70 0 0.0 0.0 0.00 0.10 0.08 55 1014.8
20260508233039 70 0 0.0 0.0 0.00 0.10 0.08 55 1014.7
20260508232521 70 0 0.0 0.0 0.00 0.10 0.08 55 1014.6
20260508232020 70 0 0.0 1.7 0.00 0.10 0.08 54 1014.7
20260508231537 70 0 0.0 1.7 0.00 0.10 0.08 54 1014.9
20260508231020 70 0 0.0 0.0 0.00 0.10 0.08 54 1014.8
20260508230520 70 0 0.0 0.9 0.00 0.10 0.08 54 1014.8
20260508230036 71 0 0.0 0.9 0.00 0.10 0.08 52 1014.9
20260508225525 71 0 0.0 0.0 0.00 0.11 0.08 53 1014.7
20260508225022 71 0 0.0 0.0 0.00 0.11 0.08 53 1014.7
20260508224547 71 0 0.0 0.0 0.00 0.11 0.08 53 1014.9
20260508224023 71 0 0.0 0.0 0.00 0.11 0.08 53 1014.7
20260508223524 71 0 0.0 1.7 0.00 0.11 0.08 52 1014.7
20260508223035 71 0 0.0 1.7 0.00 0.11 0.08 51 1014.7
20260508222520 71 0 0.0 2.6 0.01 0.11 0.08 51 1014.8
20260508222019 71 0 0.0 2.6 0.01 0.11 0.08 50 1014.9
20260508221535 72 0 0.0 1.7 0.01 0.11 0.08 50 1014.9
20260508221020 72 0 0.0 2.6 0.01 0.11 0.08 49 1014.7
20260508220521 72 102 0.0 2.6 0.01 0.11 0.08 49 1015.1
20260508220044 73 0 0.0 2.6 0.01 0.11 0.08 48 1014.9
20260508215524 73 0 0.0 0.9 0.01 0.11 0.08 49 1014.9
20260508215018 73 0 0.0 0.0 0.01 0.11 0.08 50 1014.9
20260508214543 73 0 0.0 0.0 0.01 0.11 0.08 49 1014.9
20260508214021 73 0 0.0 0.0 0.01 0.11 0.08 50 1014.7
20260508213518 73 0 0.0 0.0 0.01 0.11 0.08 49 1014.9
20260508213039 73 0 0.0 2.6 0.00 0.10 0.07 51 1014.9
20260508212518 73 0 0.0 2.6 0.00 0.10 0.07 46 1014.8
20260508212019 73 0 0.9 3.5 0.00 0.10 0.07 46 1014.7
20260508211538 74 98 0.9 3.5 0.00 0.10 0.07 45 1014.5
20260508211020 74 0 0.0 3.5 0.00 0.10 0.07 44 1014.7
20260508210521 75 98 0.0 2.6 0.00 0.10 0.07 44 1014.8
20260508210039 75 0 0.0 2.6 0.00 0.10 0.07 45 1014.8
20260508205518 75 0 0.0 0.9 0.00 0.11 0.07 45 1014.9
20260508205018 75 0 0.0 3.5 0.00 0.11 0.07 44 1015.1
20260508204539 75 0 0.9 3.5 0.00 0.11 0.07 43 1015.1
20260508204018 76 0 0.0 0.9 0.00 0.11 0.07 42 1015.3
20260508203518 76 0 0.0 1.7 0.00 0.11 0.07 45 1015.1
20260508203040 76 92 0.0 3.5 0.00 0.11 0.07 43 1015.1
20260508202523 76 0 0.0 3.5 0.00 0.11 0.07 41 1015.2
20260508202018 76 0 0.0 1.7 0.00 0.11 0.07 44 1015.2
20260508201536 76 0 0.0 2.6 0.00 0.11 0.07 46 1015.2
20260508201018 76 0 0.0 2.6 0.00 0.11 0.07 42 1015.1
20260508200518 76 263 0.0 1.7 0.00 0.11 0.07 41 1015.1
20260508200036 76 0 0.0 1.7 0.00 0.11 0.07 43 1015.1
20260508195517 76 0 0.0 3.5 0.00 0.12 0.07 41 1015.2
20260508195020 76 0 0.0 3.5 0.00 0.12 0.07 41 1015.3
20260508194538 76 0 0.0 2.6 0.01 0.12 0.07 41 1015.3
20260508194018 76 0 0.0 2.6 0.01 0.12 0.07 41 1015.3
20260508193521 76 0 0.0 4.3 0.01 0.12 0.07 42 1015.3
20260508193039 76 0 0.9 4.3 0.01 0.12 0.07 39 1015.4
20260508192518 77 0 0.0 2.6 0.01 0.12 0.07 44 1015.6
20260508192022 77 0 0.0 2.6 0.01 0.12 0.07 41 1015.8
20260508191545 77 0 0.0 2.6 0.01 0.12 0.07 42 1015.9